www.pogodaiklimat.ru

Погода и климат >> Архив погоды >> Хорватия >> Градиште


ПОГОДА в Градиште

  • Прогноз погоды в Градиште
  • Монитор погоды в Градиште

АРХИВ ПОГОДЫ в Градиште

Время (UTC), дата Ветер
(напр.,м/с)
 
Видим.   Явления Облачность Т
(С)
Тd
(С)
f
(%)
Тe
(С)
Тes
(С)
Комфортность P
(гПа)
Po
(гПа)
Тmin
(С)
Tmax
(С)
R
(мм)
R24
(мм)
S
(см)
07 15.09 С 2 20 км ясно +16.3 +11.6 74 +16 +20 1027.8 1016.1
08 15.09 З 2 20 км ясно +19.6 +12.2 62 +22 +28 комфорт 1027.7 1016.1
09 15.09 С 2 20 км ясно +21.2 +11.6 54 +23 +32 комфорт 1027.4 1015.9
10 15.09 С 2 20 км ясно +23.7 +11.8 47 +25 +36 комфорт 1027.0 1015.6
11 15.09 ЮЗ 2 20 км 3/3 1000 м
[Cu hum]
+26.0 +12.7 44 +28 +36 жарко 1025.9 1014.6
12 15.09 СВ 2 20 км 3/3 1000 м
[Cu hum]
+25.7 +12.2 43 +27 +35 жарко 1024.9 1013.6
13 15.09 С 1 20 км 3/3 600 м
[Cu hum]
+26.9 +11.7 39 +28 +35 жарко 1024.3 1013.0
14 15.09 С 1 20 км ясно +26.9 +11.7 39 +28 +34 жарко 1023.3 1012.0
15 15.09 В 1 20 км ясно +27.2 +12.1 39 +28 +31 жарко 1022.8 1011.5
16 15.09 В 2 20 км ясно +25.6 +12.4 44 +27 +28 жарко 1022.4 1011.1
17 15.09 В 1 20 км ясно +23.7 +13.2 52 +26 +26 жарко 1022.0 1010.6
18 15.09 В 1 10 км ясно +20.9 +14.3 66 +25 +25 комфорт 1022.1 1010.6 +27.5
19 15.09 В 2 10 км ясно +19.3 +13.9 71 +21 +21 комфорт 1022.2 1010.6
20 15.09 В 1 10 км ясно +17.9 +14.0 78 +19 +19 1022.3 1010.7
21 15.09 В 1 10 км ясно +16.6 +13.9 84 +17 +17 1022.0 1010.3
00 16.09 С 1 10 км ясно +14.2 +13.0 92 +14 +14 1021.1 1009.4
03 16.09 З 1 10 км ясно +12.5 +11.6 94 +12 +12 1020.6 1008.8
04 16.09 З 1 10 км ясно +12.3 +11.6 95 +12 +12 1020.3 1008.5
05 16.09 Ю 2 10 км ясно +12.7 +12.0 96 +12 +12 1020.2 1008.4
06 16.09 З 1 10 км ясно +13.5 +12.6 94 +14 +15 1020.3 1008.5 +12.2
07 16.09 З 2 10 км ясно +16.8 +14.3 85 +17 +21 1020.1 1008.5
08 16.09 З 2 10 км ясно +21.5 +15.2 67 +25 +31 комфорт 1019.9 1008.5
09 16.09 З 2 10 км ясно +23.5 +14.8 58 +26 +35 жарко 1019.6 1008.2
10 16.09 СЗ 2 10 км ясно +25.8 +13.1 45 +28 +39 жарко 1019.2 1007.9
11 16.09 З 1 20 км ясно +26.9 +12.1 40 +28 +42 жарко 1018.6 1007.4
12 16.09 З 2 20 км ясно +28.1 +13.4 40 +30 +40 жарко 1017.7 1006.5
13 16.09 З 2 20 км ясно +29.1 +12.3 35 +30 +38 жарко 1016.9 1005.8
14 16.09 СЗ 2 20 км ясно +29.7 +12.7 35 +31 +36 жарко 1016.2 1005.1
15 16.09 З 2 20 км ясно +29.1 +12.5 36 +30 +33 жарко 1015.5 1004.4
16 16.09 З 1 20 км ясно +28.3 +13.7 41 +30 +31 жарко 1015.1 1004.0
17 16.09 Ю 1 15 км ясно +26.0 +13.6 46 +28 +28 жарко 1015.0 1003.8
18 16.09 Ю 2 15 км ясно +23.1 +14.4 58 +27 +27 душно 1015.2 1003.9 +29.7
19 16.09 Ю 1 15 км ясно +20.8 +15.1 70 +25 +25 комфорт 1015.4 1004.0
20 16.09 Ю 1 15 км ясно +19.5 +15.4 77 +22 +22 комфорт 1015.6 1004.1
21 16.09 Ю 2 15 км ясно +18.2 +14.5 79 +19 +19 1015.5 1004.0
00 17.09 ЮЗ 1 10 км ясно +15.7 +14.5 93 +16 +16 1014.8 1003.2
03 17.09 З 1 5000 м дымка ясно +14.9 +14.0 94 +15 +15 1014.4 1002.8
04 17.09 З 1 4000 м дымка ясно +14.1 +13.2 94 +14 +14 1014.4 1002.7
05 17.09 З 1 4000 м дымка 1/0
[Ci fib]
+14.6 +13.4 93 +15 +15 1014.8 1003.1
06 17.09 ЮЗ 2 5000 м дымка 3/0
[Ac trans]
+15.1 +13.4 90 +15 +16 1014.8 1003.2 +13.9
07 17.09 З 3 10 км 4/0
[Ac trans]
+18.8 +14.9 78 +20 +22 1015.1 1003.6
08 17.09 СЗ 2 10 км 3/0
[Ac cast]
+21.2 +15.5 70 +24 +29 комфорт 1015.0 1003.6
09 17.09 З 1 10 км 3/0
[Ac cast Cc]
+23.5 +15.5 61 +27 +36 душно 1014.9 1003.6
10 17.09 ЮЗ 2 10 км 3/0
[Ac trans Cc]
+26.4 +16.9 56 +30 +40 душно 1014.4 1003.2
11 17.09 ЮВ 2 15 км 4/0
[Ac cast]
+28.0 +15.9 48 +31 +39 душно 1013.6 1002.5
12 17.09 ЮВ 2 15 км 4/0
[Ac cast Cc]
+28.6 +14.6 42 +31 +40 жарко 1013.1 1002.0
13 17.09 СЗ 2 15 км 3/3 1000 м
[Cu med, cong]
+29.7 +14.7 40 +32 +37 душно 1012.4 1001.3
14 17.09 Ю 1 15 км 4/4 1000 м
[Cu med, cong]
+29.8 +14.5 39 +32 +35 душно 1011.9 1000.9
15 17.09 З 1 15 км 6/4 1000 м
[Cu med, cong Ac trans]
+29.7 +14.5 40 +32 +33 душно 1011.7 1000.7
16 17.09 В 2 15 км 5/3 1000 м
[Cu med, cong Ac trans Cc]
+28.4 +14.8 43 +31 +31 душно 1011.3 1000.2
17 17.09 штиль 0 15 км 5/0
[Ac trans Cc]
+27.0 +15.3 49 +30 +30 душно 1011.3 1000.2
18 17.09 СВ 2 15 км 3/0
[Cc]
+23.5 +16.1 63 +27 +27 душно 1012.0 1000.7 +30.6
19 17.09 В 2 15 км ясно +21.8 +14.1 62 +25 +25 комфорт 1012.4 1001.1
20 17.09 В 3 15 км 3/0
[Cc]
+20.4 +13.4 64 +23 +23 комфорт 1012.8 1001.4
21 17.09 В 1 15 км 4/0
[Ac trans Cc]
+19.6 +13.7 69 +22 +22 комфорт 1012.9 1001.5
00 18.09 СВ 2 15 км 10/5 1000 м
[Sc Ac As]
+17.9 +13.6 76 +18 +18 1014.2 1002.7
03 18.09 СВ 3 10 км дождь 10/5 600 м
[Frnb As op]
+15.8 +14.5 92 +15 +15 1017.3 1005.7
04 18.09 В 1 5000 м слаб. дождь 10/5 600 м
[Frnb Ac As]
+15.3 +14.1 93 +16 +16 1018.3 1006.6
05 18.09 СВ 1 5000 м слаб. дождь 10/6 600 м
[Frnb Ac As]
+15.2 +13.5 90 +16 +16 1019.5 1007.8
06 18.09 В 1 5000 м слаб. дождь 10/5 600 м
[Frnb As op]
+14.8 +13.1 90 +15 +15 1020.5 1008.8 +14.8 4
07 18.09 СВ 2 10 км 10/10 600 м
[St]
+14.8 +13.1 90 +14 +14 1021.3 1009.6
08 18.09 В 1 20 км 10/10 1000 м
[Sc]
+15.0 +11.9 82 +16 +16 1022.2 1010.5
09 18.09 Ю 1 20 км 10/10 1000 м
[Sc]
+15.2 +11.0 76 +16 +16 1022.7 1011.0
10 18.09 ЮВ 1 20 км 10/10 1000 м
[Sc]
+15.6 +10.7 73 +16 +16 1022.8 1011.1
11 18.09 З 1 20 км 10/10 1000 м
[Sc]
+16.0 +8.8 62 +17 +17 1022.9 1011.2
12 18.09 З 1 20 км 10/10 1000 м
[Sc]
+16.0 +8.8 62 +17 +17 1022.9 1011.2
13 18.09 СЗ 2 30 км 10/6 1000 м
[St As op]
+15.8 +10.5 71 +16 +16 1022.7 1011.0
14 18.09 СЗ 2 30 км 10/8 1000 м
[St As op]
+15.6 +10.3 71 +16 +16 1022.7 1011.0
15 18.09 З 2 30 км 10/6 1000 м
[St As op]
+15.4 +12.3 82 +15 +15 1022.6 1010.9
16 18.09 СЗ 1 30 км 10/8 1000 м
[St As op]
+15.0 +11.9 82 +16 +16 1022.2 1010.5
17 18.09 З 1 30 км 10/8 1000 м
[St As op]
+14.4 +11.2 81 +15 +15 1022.3 1010.5
18 18.09 З 1 30 км 10/4 1000 м
[St As op]
+14.2 +11.0 81 +15 +15 1022.6 1010.8 +16.2
19 18.09 З 1 30 км 6/0
[Ac trans]
+13.8 +10.6 81 +14 +14 1022.9 1011.1
20 18.09 С 1 30 км 6/0
[Ac trans]
+13.8 +10.6 81 +14 +14 1023.0 1011.2
21 18.09 СВ 1 30 км 8/0
[Ac trans]
+13.4 +10.9 85 +14 +14 1023.2 1011.4
00 19.09 штиль 0 30 км 10/0
[Ac trans]
+12.0 +9.4 84 +11 +11 1023.1 1011.2
03 19.09 З 1 30 км 8/0
[Ac trans]
+10.0 +8.9 93 +9 +9 1023.0 1011.0
04 19.09 СЗ 1 20 км 9/4 1000 м
[St Ac trans]
+10.1 +8.8 92 +10 +10 1023.0 1011.0
05 19.09 С 1 20 км 9/6 1000 м
[Cu hum Ac trans]
+10.4 +9.5 94 +10 +10 1023.2 1011.3
06 19.09 В 1 20 км 9/8 1000 м
[St Ac trans]
+11.2 +9.3 88 +11 +11 1023.5 1011.6 +10.0
07 19.09 СВ 1 30 км 9/5 1000 м
[Sc Ac trans]
+11.9 +7.5 74 +12 +13 1024.4 1012.5
08 19.09 СВ 1 30 км 9/5 1000 м
[Sc Ac As]
+13.2 +6.9 66 +14 +15 1024.7 1012.8
09 19.09 СВ 1 30 км 9/5 1000 м
[Sc Ac As]
+14.4 +7.7 64 +15 +17 1024.8 1013.0
10 19.09 В 2 30 км 9/5 1000 м
[Sc Ac trans]
+15.6 +6.3 54 +16 +18 1024.8 1013.0
11 19.09 В 2 30 км 8/3 1000 м
[Sc Ac trans]
+16.6 +4.5 45 +17 +21 1024.6 1012.9
12 19.09 СВ 2 30 км 8/1 1000 м
[Sc Ac trans]
+18.0 +3.6 38 +19 +23 1024.1 1012.4
13 19.09 СЗ 1 30 км 8/3 1000 м
[Sc Ac trans]
+18.5 +3.3 36 +20 +23 1023.6 1012.0
14 19.09 С 3 30 км 8/3 1000 м
[Sc Ac trans]
+18.8 +2.0 33 +19 +21 1022.9 1011.3
15 19.09 СВ 2 30 км 8/3 1000 м
[Sc Ac trans]
+18.3 +3.0 36 +19 +20 1022.9 1011.3
16 19.09 В 3 30 км 8/4 1000 м
[Sc Ac trans]
+17.7 +3.2 38 +18 +18 1023.3 1011.6
17 19.09 С 1 30 км 9/9 1000 м
[Sc]
+16.5 +4.6 45 +17 +17 1023.5 1011.8
18 19.09 С 1 30 км 4/3 1000 м
[Sc Ac trans]
+15.5 +4.7 49 +16 +16 1024.4 1012.6
19 19.09 С 2 30 км 3/0
[Ac trans]
+13.7 +5.0 56 +13 +13 1024.8 1013.0
20 19.09 СЗ 2 30 км 4/0
[Ac trans]
+12.5 +6.3 66 +12 +12 1025.5 1013.6
21 19.09 СЗ 2 30 км ясно +11.2 +5.4 67 +10 +10 1026.1 1014.1
00 20.09 СЗ 2 30 км ясно +7.9 +4.3 78 +6 +6 1026.5 1014.4
03 20.09 СЗ 2 30 км ясно +5.8 +3.6 86 +3 +3 1026.7 1014.5
04 20.09 СЗ 2 20 км ясно +6.0 +3.8 86 +4 +4 1026.6 1014.4
05 20.09 СЗ 2 20 км ясно +5.9 +3.3 83 +4 +4 1026.7 1014.5
06 20.09 СЗ 2 30 км ясно +6.8 +4.3 84 +5 +6 1027.3 1015.1 +5.5
07 20.09 С 3 30 км 3/0
[Ci fib]
+10.4 +5.6 72 +8 +11 1027.7 1015.7
08 20.09 С 3 30 км 3/0
[Ci fib]
+12.2 +4.5 59 +11 +16 1028.1 1016.2
09 20.09 СВ 2 30 км 6/0
[Ci fib]
+14.6 +5.7 55 +14 +22 1027.9 1016.1
10 20.09 С 3 40 км 6/0
[Ci fib]
+15.4 +4.8 49 +15 +23 1027.8 1016.0
11 20.09 В 2 40 км 6/0
[Ci fib]
+16.6 +4.7 45 +17 +26 1027.5 1015.7
12 20.09 С 3 40 км 5/3 1000 м
[Cu hum Ci fib]
+17.2 +3.7 41 +17 +22 1026.7 1015.0
13 20.09 В 2 40 км 5/5 1000 м
[Cu hum]
+17.4 +3.0 38 +18 +22 1026.3 1014.6
14 20.09 З 2 40 км 5/5 1000 м
[Cu hum]
+18.2 +1.9 34 +19 +21 1026.1 1014.4
15 20.09 С 2 40 км 5/5 1000 м
[Cu hum]
+18.2 +1.9 34 +19 +20 1026.1 1014.4
16 20.09 С 2 40 км 3/0
[Ci fib]
+17.2 +2.4 37 +18 +18 1026.2 1014.5
17 20.09 С 2 40 км 4/0
[Ci fib]
+15.4 +3.8 46 +15 +15 1026.4 1014.6
18 20.09 СЗ 1 40 км ясно +13.3 +3.5 51 +14 +14 1027.1 1015.2 +18.4
19 20.09 СЗ 1 40 км ясно +12.1 +6.0 66 +12 +12 1027.2 1015.3
20 20.09 штиль 0 20 км ясно +10.2 +6.5 78 +10 +10 1027.5 1015.5
21 20.09 С 1 20 км ясно +8.6 +6.0 84 +8 +8 1027.7 1015.6
00 21.09 штиль 0 10 км ясно +6.0 +4.3 89 +5 +5 1028.1 1015.9
03 21.09 СВ 1 10 км ясно +4.7 +3.1 89 +3 +3 1028.1 1015.8
04 21.09 СВ 1 10 км ясно +4.0 +2.9 93 +2 +2 1027.8 1015.5
05 21.09 СЗ 1 10 км 3/0
[Ci fib]
+3.4 +2.5 94 +2 +2 1027.8 1015.5
06 21.09 ЮЗ 1 10 км 4/0
[Ci fib]
+5.1 +4.2 94 +4 +5 1028.1 1015.9 +3.0
07 21.09 ЮЗ 1 10 км 3/0
[Ci fib]
+9.2 +6.8 85 +9 +12 1028.5 1016.4
08 21.09 В 1 10 км 3/0
[Ci fib]
+13.7 +7.0 64 +14 +21 1028.4 1016.5
09 21.09 В 2 15 км ясно +16.9 +4.4 43 +17 +26 1028.1 1016.4
10 21.09 ЮВ 3 15 км ясно +18.2 +3.1 37 +18 +27 1027.7 1016.0
11 21.09 В 4 15 км 3/0
[Ci fib]
+18.4 +2.2 34 +18 +25 1027.2 1015.5
12 21.09 В 3 20 км 3/0
[Ci fib]
+19.2 +2.4 33 +20 +27 1026.3 1014.7
13 21.09 В 2 20 км ясно +20.4 +1.3 28 +21 +21 комфорт 1025.8 1014.2
14 21.09 В 3 20 км ясно +19.8 +3.4 34 +20 +24 1025.0 1013.4
15 21.09 ЮВ 2 20 км ясно +19.9 +2.7 32 +21 +23 комфорт 1024.7 1013.1
16 21.09 В 3 20 км ясно +18.8 +0.8 30 +19 +19 1024.5 1012.9
17 21.09 В 2 20 км ясно +16.2 +3.4 42 +16 +16 1024.1 1012.4
18 21.09 В 2 20 км ясно +13.1 +4.7 57 +13 +13 1024.3 1012.4 +20.1
19 21.09 В 2 15 км ясно +11.5 +5.8 68 +11 +11 1024.1 1012.2
20 21.09 В 1 15 км ясно +10.5 +5.9 73 +10 +10 1024.3 1012.3
21 21.09 ЮВ 2 15 км ясно +9.9 +5.7 75 +8 +8 1023.9 1011.9
00 22.09 В 2 15 км ясно +7.5 +4.8 83 +5 +5 1022.9 1010.8
03 22.09 штиль 0 10 км ясно +5.3 +3.1 86 +4 +4 1022.0 1009.8
04 22.09 В 1 10 км ясно +4.7 +3.1 89 +3 +3 1021.8 1009.6
05 22.09 В 1 10 км ясно +4.8 +3.3 90 +3 +3 1021.6 1009.4

 

Местоположение метеостанции Градиште (Хорватия): широта 45.15 долгота 18.70 высота над уровнем моря 98 м.

В архиве по умолчанию представлена погода в Градиште за последнюю неделю. Архивные данные за месяц целиком и за предыдущие месяцы, начиная с января 2011 года, Вы можете получить, выбрав интересующий диапазон дат из раскрывающегося списка и нажав кнопку "Ввод!".


*Определитесь, кто Вы:
робот инопланетянин человек

Внимание! Время в таблицах - всемирное. Для получения местного времени необходимо прибавить поправку, которая равна 1 ч.

Смотрите также архив погоды в соседних городах и на ближайших метеорологических станциях:

Погода в Градачаце (Босния и Герцеговина) (37 км)
Погода в Осиек аэропорту (Хорватия) (37 км)
Погода в Осиек-Чепине (Хорватия) (40 км)
Погода в Славонски-Броде (Хорватия) (55 км)
Погода в Тузле (Босния и Герцеговина) (67 км)
Погода в Сремска-Митровице (Сербия) (67 км)
Погода в Сомборе (Сербия) (77 км)
Погода в Лознице (Сербия) (79 км)
Погода в Нови-Саде (Сербия) (92 км)
Погода в Пече (Венгрия) (101 км)

Пояснения к столбцам:

Ветер - указаны скорость ветра в м/с - средняя за 10 мин, порывы в срок и между сроками (в фигурных скобках) и направление, откуда дует ветер: С - северный, СВ - северо-восточный, В - восточный, ЮВ - юго-восточный, Ю - южный, ЮЗ - юго-западный, З - западный, СЗ - северо-западный.
Видимость - горизонтальная дальность видимости в метрах или километрах. При видимости от 1 до 10 км при отсутствии осадков обычно наблюдается дымка, при ухудшении видимости до 1 км и менее - туман. В сухую погоду видимость может ухудшаться дымом, пылью или мглою.
Явления - указаны атмосферные явления, наблюдавшиеся в срок или в последний час перед сроком; фигурными скобками обозначены явления, наблюдавшиеся между сроками (за 1-3 часа до срока); квадратными скобками обозначены град или гололедные отложения с указанием их диаметра в мм.
Облачность - указаны через наклонную черту общая и нижняя облачность в баллах и высота нижней границы облаков в метрах; квадратными скобками обозначены формы облаков: Ci - перистые, Cs - перисто-слоистые, Cc - перисто-кучевые, Ac - высококучевые, As - высокослоистые, Sc - слоисто-кучевые, Ns - слоисто-дождевые, Cu - кучевые, Cb - кучево-дождевые. Подробнее классификацию облаков см. в Атласе облаков (PDF).
T - Температура воздуха - температура, измеренная на высоте 2 м над землей.
Td - Температура точки росы - температура, при понижении до которой содержащийся в воздухе водяной пар достигнет насыщения.
f - Относительная влажность воздуха - влажноcть воздуха, измеренная на высоте 2 м над землей.
Te - Эффективная температура - температура, которую ощущает одетый по сезону человек в тени. Характеристика душности погоды. При расчете учитывается влияние влажности воздуха и скорости ветра на теплоощущения человека.
Tes - Эффективная температура на солнце - температура, которую ощущает человек, с поправкой на солнечный нагрев. Характеристика знойности погоды. Зависит от высоты солнца над горизонтом, облачности и скорости ветра. Ночью, в пасмурную погоду, а также при ветре 12 м/с и более поправка равна нулю.
P - Атмосферное давление - приведенное к уровню моря атмосферное давление.
Po - Атмосферное давление - измеренное на уровне метеостанции атмосферное давление.
Tmin - Минимальная температура - минимум температуры воздуха на высоте 2 м над землей.
Tmax - Максимальная температура - максимум температуры воздуха на высоте 2 м над землей.
R - Количество осадков - Количество выпавших осадков за период времени, мм. При наведении курсора мыши на число - период времени, за который выпало указанное количество осадков.
R24 - Количество осадков - Количество выпавших осадков за 24 часа, мм.
S - Снежный покров - Высота снежного покрова, см. При наведении курсора мыши на число - состояние снежного покрова и степень покрытия местности в баллах.